Tracking 31027 objects as of 19-Jul-2025
HD Live streaming from Space Station
objects crossing your sky now

STARLINK-5501

Track STARLINK-5501 now!
10-day predictions
STARLINK-5501 is classified as:


NORAD ID: 55648
Int'l Code: 2023-021W
Perigee: 577.7 km
Apogee: 580.7 km
Inclination: 70.0 °
Period: 96.1 minutes
Semi major axis: 6950 km
RCS: Unknown
Launch date: February 17, 2023
Source: United States (US)
Launch site: AIR FORCE WESTERN TEST RANGE (AFWTR)
Your satellite tracking list
ARIANE 5 R/B
Track 1 satellite(s)




NASA's NSSDC Master Catalog

Two Line Element Set (TLE):
1 55648U 23021W   25199.58338831 -.00000763  00000-0 -56155-4 0  9995
2 55648  70.0007  54.7586 0002126 254.7699 105.3225 14.98334082133425
Source of the keplerian elements: AFSPC